STARLINK-33932 (63775 NORAD) Tracking and Keplerian Element Data

This shows tracking and keplerian element data for the satellite.

Feedback or suggestion? Click here.




ElementValue
Catalog63775
NameSTARLINK-33932
Epoch Orbit3677
Epoch Day354.11233644
Epoch Year2025
RAAN141.7822
Inclination42.9997
Eccentricity0.0001492
Argument of Perigee270.9989
Mean Anonmoly89.0692
Mean Motion15.2756539
Decay Rate0.00017387
L11 63775U 25091A 25354.11233644 .00017387 00000+0 64014-3 0 9991
L22 63775 42.9997 141.7822 0001492 270.9989 89.0692 15.27565390 36775



Live tracking and technical data element details for STARLINK-33932 (NORAD 63775). STARLINK-33932 can be tracked NOW for your location showing map with azimuth and elevation plus other details from your city location.







IsCatalogInMostPopularTable: catalog: 63775, numindb: 2
Update: records affected: 1



GetName: 63775 STARLINK-33932

Hit Count: updated at: Sun, 08 Feb 2026 18:12:19 GMT